Weather History for LIQK - January, 2014

Change the Weather History Date:

Tuesday, January 7, 2014

  Actual Average Record
Temperature  
Mean Temperature 58 °F -  
Max Temperature 68 °F - - ()
Min Temperature 48 °F - - ()
Degree Days  
Heating Degree Days 7    
Growing Degree Days 8 (Base 50)    
Moisture  
Dew Point 47 °F    
Average Humidity 69    
Maximum Humidity 87    
Minimum Humidity 53    
Precipitation  
Precipitation 0.00 in - - ()
Sea Level Pressure  
Sea Level Pressure 30.25 in    
Wind  
Wind Speed 3 mph ()    
Max Wind Speed 6 mph    
Max Gust Speed -    
Visibility 12.0 miles    
Events      
T = Trace of Precipitation, MM = Missing Value Source: Averaged Metar Reports

Daily Weather History Graph

Daily Weather History Graph

Search for Another Location

Airport or City:

Trip Planner

Search our weather history database for the weather conditions in past years. The results will help you decide how hot, cold, wet, or windy it might be!

Date:

Astronomy

Jan. 07, 2014 Rise Set
Actual Time 7:20 AM CET 4:49 PM CET
Civil Twilight 6:50 AM CET 5:19 PM CET
Nautical Twilight 6:16 AM CET 5:53 PM CET
Astronomical Twilight 5:44 AM CET 6:26 PM CET
Moon 10:59 AM CET (1/7) No Moon Set
Length of Visible Light 10h 29m
Length of Day
9h 28m
Waxing Crescent, 42% of the Moon is Illuminated
Jan 7
Waxing Crescent
Jan 8
First Quarter
Jan 16
Full
Jan 24
Last Quarter
Jan 30
New

Hourly Weather History & Observations

Time (CET) Temp. Dew Point Humidity Pressure Visibility Wind Dir Wind Speed Gust Speed Precip Events Conditions
12:00 AM 50 °F 43 °F 70% 30.17 in 12 mi NNW 4.6 mph - -  
1:00 AM 51 °F 43 °F 65% 30.18 in 12 mi SSW 3.5 mph - -  
2:00 AM 51 °F 41 °F 60% 30.18 in 12 mi North 2.3 mph - -  
3:00 AM 51 °F 41 °F 60% 30.18 in 12 mi North 1.2 mph - -  
4:00 AM 50 °F 41 °F 62% 30.21 in 12 mi NNW 2.3 mph - -  
5:00 AM 50 °F 41 °F 63% 30.21 in 12 mi NNW 3.5 mph - -  
6:00 AM 48 °F 41 °F 70% 30.21 in 12 mi NNW 4.6 mph - -  
7:00 AM 48 °F 41 °F 70% 30.22 in 12 mi NW 3.5 mph - -  
8:00 AM 49 °F 42 °F 69% 30.22 in 12 mi North 4.6 mph - -  
9:00 AM 51 °F 44 °F 69% 30.22 in 12 mi North 4.6 mph - -  
10:00 AM 55 °F 44 °F 56% 30.27 in 12 mi North 4.6 mph - -  
11:00 AM 59 °F 46 °F 53% 30.28 in 12 mi SSW 3.5 mph - -  
12:00 PM 61 °F 49 °F 55% 30.27 in 12 mi SSW 3.5 mph - -  
1:00 PM 61 °F 49 °F 56% 30.27 in 12 mi SW 4.6 mph - -  
2:00 PM 68 °F 58 °F 63% 30.26 in 12 mi SSW 2.3 mph - -  
3:00 PM 68 °F 60 °F 68% 30.26 in 12 mi SW 4.6 mph - -   Scattered Clouds
4:00 PM 59 °F 52 °F 71% 30.27 in 12 mi SSW 3.5 mph - -   Scattered Clouds
5:00 PM 55 °F 50 °F 78% 30.28 in 12 mi SSW 5.8 mph - -   Partly Cloudy
6:00 PM 54 °F 51 °F 84% 30.28 in 12 mi SW 2.3 mph - -   Partly Cloudy
7:00 PM 54 °F 50 °F 82% 30.31 in 12 mi SW 4.6 mph - -  
8:00 PM 54 °F 50 °F 82% 30.29 in 12 mi SSW 5.8 mph - -  
9:00 PM 54 °F 51 °F 85% 30.30 in 12 mi SW 3.5 mph - -  
10:00 PM 53 °F 50 °F 87% 30.31 in 12 mi SSW 5.8 mph - -  
11:00 PM 52 °F 49 °F 85% 30.31 in 12 mi SW 3.5 mph - -